JFA13V EGPA-EGPH

Flight info

Callsign JFA13V
Flight time N/A
Altitude 24000
Route KOKAL DCT WIK/N0276F230 DCT ADN/N0276F240 P600 PTH
Aircraft PC12/L-SDFGRWY/S

Departure

Time 2026-04-17 11:14
Airport Kirkwall Airport (EGPA)

Arrival

Time N/A
Airport Edinburgh Airport (EGPH)
Time Latitude Longitude Altitude Speed Heading
2026-04-17 11:01 58.95455 -2.90198 45 ft 0 kts 308°
2026-04-17 11:10 58.95455 -2.90199 45 ft 1 kts 315°
2026-04-17 11:10 58.95484 -2.90163 45 ft 10 kts 40°
2026-04-17 11:10 58.95547 -2.90121 45 ft 11 kts 326°
2026-04-17 11:10 58.95608 -2.90212 45 ft 11 kts 322°
2026-04-17 11:11 58.95667 -2.90303 45 ft 11 kts 317°
2026-04-17 11:11 58.95730 -2.90403 45 ft 12 kts 321°
2026-04-17 11:11 58.95785 -2.90528 44 ft 13 kts 285°
2026-04-17 11:11 58.95784 -2.90696 43 ft 12 kts 266°
2026-04-17 11:12 58.95779 -2.90860 43 ft 12 kts 268°
2026-04-17 11:12 58.95765 -2.91024 44 ft 11 kts 268°
2026-04-17 11:12 58.95779 -2.91011 43 ft 0 kts 87°
2026-04-17 11:13 58.95781 -2.90944 43 ft 23 kts 87°
2026-04-17 11:13 58.95794 -2.90267 46 ft 75 kts 88°
2026-04-17 11:13 58.95808 -2.89136 222 ft 88 kts 92°
2026-04-17 11:14 58.95820 -2.87903 509 ft 95 kts 97°
2026-04-17 11:14 58.95692 -2.86678 825 ft 95 kts 142°
2026-04-17 11:14 58.95066 -2.86576 1151 ft 104 kts 210°
2026-04-17 11:14 58.94454 -2.87427 1529 ft 110 kts 215°
2026-04-17 11:15 58.93823 -2.88283 1945 ft 114 kts 215°
2026-04-17 11:15 58.93246 -2.89367 2356 ft 120 kts 227°
2026-04-17 11:15 58.92590 -2.90440 2748 ft 128 kts 213°
2026-04-17 11:15 58.91724 -2.91063 3145 ft 137 kts 199°
2026-04-17 11:16 58.90792 -2.91519 3523 ft 146 kts 198°
2026-04-17 11:16 58.89777 -2.91968 3910 ft 154 kts 197°
2026-04-17 11:16 58.88706 -2.92423 4304 ft 161 kts 197°
2026-04-17 11:16 58.87597 -2.92886 4698 ft 165 kts 196°
2026-04-17 11:17 58.86463 -2.93358 5079 ft 168 kts 196°
2026-04-17 11:17 58.85310 -2.93838 5463 ft 171 kts 196°
2026-04-17 11:17 58.84137 -2.94326 5854 ft 174 kts 196°
2026-04-17 11:17 58.82946 -2.94820 6249 ft 176 kts 196°
2026-04-17 11:18 58.81731 -2.95325 6618 ft 181 kts 196°
2026-04-17 11:18 58.80489 -2.95840 6990 ft 184 kts 195°
2026-04-17 11:18 58.79254 -2.96352 7364 ft 187 kts 195°
2026-04-17 11:18 58.77978 -2.96880 7744 ft 188 kts 195°
2026-04-17 11:19 58.76717 -2.97401 8122 ft 188 kts 195°
2026-04-17 11:19 58.75430 -2.97933 8516 ft 189 kts 195°
2026-04-17 11:19 58.74143 -2.98465 8914 ft 189 kts 195°
2026-04-17 11:19 58.72859 -2.98995 9312 ft 189 kts 194°
2026-04-17 11:20 58.71573 -2.99525 9713 ft 188 kts 194°
2026-04-17 11:20 58.70293 -3.00052 10070 ft 188 kts 194°
2026-04-17 11:20 58.69019 -3.00576 10437 ft 187 kts 194°
2026-04-17 11:20 58.67750 -3.01099 10812 ft 186 kts 194°
2026-04-17 11:21 58.66484 -3.01619 11194 ft 186 kts 194°
2026-04-17 11:21 58.65221 -3.02138 11575 ft 186 kts 194°
2026-04-17 11:21 58.63958 -3.02657 11964 ft 186 kts 194°
2026-04-17 11:21 58.62692 -3.03176 12354 ft 186 kts 194°
2026-04-17 11:22 58.61428 -3.03694 12749 ft 186 kts 194°
2026-04-17 11:22 58.60168 -3.04210 13153 ft 185 kts 195°
2026-04-17 11:22 58.58911 -3.04725 13563 ft 185 kts 194°
2026-04-17 11:22 58.57654 -3.05239 13930 ft 184 kts 194°
2026-04-17 11:23 58.56402 -3.05750 14292 ft 184 kts 194°
2026-04-17 11:23 58.55151 -3.06262 14663 ft 184 kts 194°
2026-04-17 11:23 58.53904 -3.06771 15042 ft 183 kts 194°
2026-04-17 11:23 58.52667 -3.07276 15418 ft 185 kts 194°
2026-04-17 11:24 58.51392 -3.07796 15805 ft 185 kts 194°
2026-04-17 11:24 58.50147 -3.08302 16190 ft 185 kts 194°
2026-04-17 11:24 58.48890 -3.08814 16580 ft 185 kts 194°
2026-04-17 11:24 58.47634 -3.09324 16981 ft 185 kts 194°
2026-04-17 11:25 58.46369 -3.09787 17385 ft 186 kts 187°
2026-04-17 11:25 58.45075 -3.09434 17804 ft 192 kts 165°
2026-04-17 11:25 58.43827 -3.08490 18201 ft 194 kts 164°
2026-04-17 11:25 58.42571 -3.07543 18564 ft 194 kts 165°
2026-04-17 11:26 58.41293 -3.06590 18926 ft 195 kts 165°
2026-04-17 11:26 58.40026 -3.05643 19298 ft 196 kts 166°
2026-04-17 11:26 58.38772 -3.04705 19667 ft 196 kts 166°
2026-04-17 11:26 58.37498 -3.03754 20047 ft 197 kts 166°
2026-04-17 11:27 58.36218 -3.02798 20425 ft 198 kts 167°
2026-04-17 11:27 58.34937 -3.01843 20812 ft 198 kts 167°
2026-04-17 11:27 58.33653 -3.00886 21210 ft 199 kts 168°
2026-04-17 11:27 58.32362 -2.99925 21606 ft 200 kts 168°
2026-04-17 11:28 58.31065 -2.98959 22002 ft 200 kts 168°
2026-04-17 11:28 58.29764 -2.97992 22415 ft 201 kts 169°
2026-04-17 11:28 58.28459 -2.97022 22796 ft 203 kts 169°
2026-04-17 11:28 58.27079 -2.96015 22813 ft 221 kts 169°
2026-04-17 11:29 58.25600 -2.94924 22816 ft 235 kts 168°
2026-04-17 11:29 58.24043 -2.93764 22820 ft 246 kts 167°
2026-04-17 11:29 58.22428 -2.92561 22820 ft 253 kts 167°
2026-04-17 11:29 58.20772 -2.91334 22819 ft 258 kts 167°
2026-04-17 11:30 58.19090 -2.90090 22812 ft 261 kts 167°
2026-04-17 11:30 58.17386 -2.88832 22815 ft 264 kts 167°
2026-04-17 11:30 58.15671 -2.87567 22813 ft 266 kts 167°
2026-04-17 11:30 58.13945 -2.86294 22814 ft 267 kts 167°
2026-04-17 11:31 58.12214 -2.85017 22818 ft 267 kts 167°
2026-04-17 11:31 58.10482 -2.83741 22821 ft 268 kts 167°
2026-04-17 11:31 58.08741 -2.82463 22820 ft 268 kts 167°
2026-04-17 11:31 58.08176 -2.82049 22820 ft 268 kts 167°
2026-04-17 11:32 58.07086 -2.81249 22824 ft 266 kts 167°
2026-04-17 11:32 58.05367 -2.79986 22818 ft 263 kts 167°
2026-04-17 11:32 58.03696 -2.78762 22818 ft 260 kts 168°
2026-04-17 11:33 58.02019 -2.77536 22829 ft 257 kts 167°
2026-04-17 11:33 58.00355 -2.76321 22823 ft 256 kts 168°
2026-04-17 11:33 57.98699 -2.75113 22827 ft 255 kts 168°
2026-04-17 11:33 57.97051 -2.73910 22830 ft 254 kts 168°
2026-04-17 11:34 57.95408 -2.72713 22820 ft 253 kts 168°
2026-04-17 11:34 57.93770 -2.71520 22827 ft 252 kts 168°
2026-04-17 11:34 57.92135 -2.70332 22830 ft 252 kts 168°
2026-04-17 11:34 57.90567 -2.69195 22830 ft 254 kts 168°
2026-04-17 11:35 57.88915 -2.67996 22827 ft 255 kts 167°
2026-04-17 11:35 57.87260 -2.66796 22829 ft 255 kts 167°
2026-04-17 11:35 57.85598 -2.65591 22829 ft 256 kts 167°
2026-04-17 11:35 57.83936 -2.64389 22828 ft 256 kts 167°
2026-04-17 11:36 57.82275 -2.63187 22835 ft 256 kts 167°
2026-04-17 11:36 57.80611 -2.61986 22836 ft 256 kts 167°
2026-04-17 11:36 57.78950 -2.60788 22836 ft 256 kts 167°
2026-04-17 11:36 57.77345 -2.59631 22839 ft 256 kts 167°
2026-04-17 11:37 57.75646 -2.58407 22840 ft 256 kts 167°
2026-04-17 11:37 57.74066 -2.57270 22842 ft 255 kts 167°
2026-04-17 11:37 57.72385 -2.56063 22842 ft 255 kts 167°
2026-04-17 11:37 57.70749 -2.54888 22838 ft 255 kts 167°
2026-04-17 11:38 57.69091 -2.53698 22847 ft 255 kts 167°
2026-04-17 11:38 57.67438 -2.52514 22848 ft 255 kts 167°
2026-04-17 11:38 57.65782 -2.51328 22846 ft 254 kts 167°
2026-04-17 11:38 57.64129 -2.50146 22842 ft 254 kts 167°
2026-04-17 11:39 57.62480 -2.48968 22848 ft 254 kts 167°
2026-04-17 11:39 57.60826 -2.47788 22846 ft 254 kts 167°
2026-04-17 11:39 57.59174 -2.46610 22853 ft 254 kts 167°
2026-04-17 11:39 57.57525 -2.45435 22843 ft 254 kts 167°
2026-04-17 11:40 57.56096 -2.44417 22864 ft 253 kts 167°
2026-04-17 11:40 57.54455 -2.43251 22854 ft 253 kts 167°
2026-04-17 11:40 57.52809 -2.42082 22867 ft 253 kts 167°
2026-04-17 11:40 57.51599 -2.41223 22860 ft 253 kts 167°
2026-04-17 11:41 57.49954 -2.40056 22871 ft 253 kts 167°
2026-04-17 11:41 57.48314 -2.38894 22873 ft 252 kts 167°
2026-04-17 11:41 57.46697 -2.37749 22872 ft 252 kts 167°
2026-04-17 11:41 57.45032 -2.36572 22870 ft 252 kts 167°
2026-04-17 11:42 57.43416 -2.35430 22878 ft 252 kts 167°
2026-04-17 11:42 57.41782 -2.34276 22880 ft 251 kts 167°
2026-04-17 11:42 57.40150 -2.33126 22878 ft 251 kts 167°
2026-04-17 11:42 57.38601 -2.32035 22872 ft 251 kts 167°
2026-04-17 11:43 57.36966 -2.30884 22883 ft 251 kts 167°
2026-04-17 11:43 57.35338 -2.29739 22883 ft 250 kts 167°
2026-04-17 11:43 57.33713 -2.28603 22885 ft 248 kts 168°
2026-04-17 11:43 57.32055 -2.28007 22880 ft 239 kts 184°
2026-04-17 11:44 57.30435 -2.28332 22903 ft 232 kts 198°
2026-04-17 11:44 57.28987 -2.29448 23167 ft 220 kts 212°
2026-04-17 11:44 57.27757 -2.31013 23495 ft 211 kts 216°
2026-04-17 11:44 57.26591 -2.32528 23767 ft 204 kts 216°
2026-04-17 11:45 57.25416 -2.34053 23887 ft 207 kts 216°
2026-04-17 11:45 57.24231 -2.35595 23892 ft 214 kts 216°
2026-04-17 11:45 57.22995 -2.37204 23890 ft 220 kts 216°
2026-04-17 11:45 57.21733 -2.38843 23884 ft 224 kts 216°
2026-04-17 11:46 57.20516 -2.40423 23889 ft 225 kts 216°
2026-04-17 11:46 57.19230 -2.42091 23880 ft 227 kts 216°
2026-04-17 11:46 57.17938 -2.43764 23890 ft 227 kts 216°
2026-04-17 11:46 57.16644 -2.45439 23879 ft 227 kts 216°
2026-04-17 11:47 57.15350 -2.47113 23887 ft 227 kts 216°
2026-04-17 11:47 57.14052 -2.48790 23880 ft 228 kts 216°
2026-04-17 11:47 57.12755 -2.50464 23881 ft 228 kts 216°
2026-04-17 11:47 57.11459 -2.52135 23875 ft 227 kts 216°
2026-04-17 11:48 57.10163 -2.53806 23873 ft 228 kts 216°
2026-04-17 11:48 57.08862 -2.55481 23878 ft 228 kts 215°
2026-04-17 11:48 57.07566 -2.57148 23872 ft 228 kts 215°
2026-04-17 11:48 57.06262 -2.58824 23875 ft 228 kts 215°
2026-04-17 11:49 57.04965 -2.60489 23882 ft 228 kts 215°
2026-04-17 11:49 57.03699 -2.62113 23882 ft 227 kts 215°
2026-04-17 11:49 57.02430 -2.63740 23870 ft 228 kts 215°
2026-04-17 11:49 57.01114 -2.65425 23869 ft 228 kts 215°
2026-04-17 11:50 56.99833 -2.67065 23870 ft 227 kts 215°
2026-04-17 11:50 56.98539 -2.68720 23874 ft 227 kts 215°
2026-04-17 11:50 56.97240 -2.70378 23867 ft 228 kts 215°
2026-04-17 11:50 56.95939 -2.72039 23857 ft 227 kts 214°
2026-04-17 11:51 56.95063 -2.73155 23869 ft 228 kts 214°
2026-04-17 11:51 56.93678 -2.74914 23874 ft 228 kts 214°
2026-04-17 11:51 56.92374 -2.76571 23870 ft 228 kts 214°
2026-04-17 11:51 56.91070 -2.78228 23853 ft 228 kts 214°
2026-04-17 11:52 56.89768 -2.79881 23866 ft 228 kts 214°
2026-04-17 11:52 56.88466 -2.81535 23854 ft 228 kts 214°
2026-04-17 11:52 56.87163 -2.83190 23861 ft 228 kts 214°
2026-04-17 11:52 56.85966 -2.84709 23858 ft 227 kts 214°
2026-04-17 11:53 56.84699 -2.86316 23865 ft 227 kts 214°
2026-04-17 11:53 56.83839 -2.87405 23863 ft 227 kts 214°
2026-04-17 11:53 56.82525 -2.89067 23863 ft 227 kts 214°
2026-04-17 11:53 56.81251 -2.90679 23867 ft 225 kts 214°
2026-04-17 11:54 56.79960 -2.92313 23865 ft 226 kts 214°
2026-04-17 11:54 56.78766 -2.93821 23866 ft 226 kts 214°
2026-04-17 11:54 56.77472 -2.95453 23870 ft 226 kts 213°
2026-04-17 11:54 56.76173 -2.97090 23868 ft 227 kts 213°
2026-04-17 11:55 56.74874 -2.98723 23867 ft 227 kts 213°
2026-04-17 11:55 56.73573 -3.00356 23865 ft 227 kts 213°
2026-04-17 11:55 56.72274 -3.01985 23868 ft 227 kts 213°
2026-04-17 11:55 56.70978 -3.03610 23871 ft 226 kts 213°
2026-04-17 11:56 56.69681 -3.05232 23865 ft 226 kts 213°
2026-04-17 11:56 56.68557 -3.06637 23867 ft 226 kts 213°
2026-04-17 11:56 56.67295 -3.08217 23867 ft 226 kts 213°
2026-04-17 11:56 56.66002 -3.09836 23867 ft 226 kts 213°
2026-04-17 11:57 56.64706 -3.11456 23864 ft 226 kts 213°
2026-04-17 11:57 56.63411 -3.13074 23864 ft 226 kts 213°
2026-04-17 11:57 56.62115 -3.14691 23866 ft 226 kts 213°
2026-04-17 11:57 56.60828 -3.16296 23866 ft 226 kts 213°
2026-04-17 11:58 56.59536 -3.17906 23863 ft 225 kts 212°
2026-04-17 11:58 56.58245 -3.19512 23865 ft 225 kts 212°
2026-04-17 11:58 56.56958 -3.21113 23863 ft 225 kts 212°
2026-04-17 11:58 56.55665 -3.22719 23864 ft 224 kts 212°
2026-04-17 11:59 56.54379 -3.24317 23864 ft 224 kts 212°
2026-04-17 11:59 56.53091 -3.25914 23865 ft 224 kts 212°
2026-04-17 11:59 56.51804 -3.27509 23864 ft 224 kts 212°
2026-04-17 11:59 56.50767 -3.28793 23727 ft 227 kts 212°
2026-04-17 12:00 56.49494 -3.30371 23378 ft 231 kts 212°
2026-04-17 12:00 56.48165 -3.32015 22964 ft 233 kts 212°
2026-04-17 12:00 56.46816 -3.33683 22552 ft 234 kts 212°
2026-04-17 12:00 56.45464 -3.35351 22144 ft 235 kts 212°
2026-04-17 12:01 56.44115 -3.37028 21735 ft 235 kts 213°
2026-04-17 12:01 56.42835 -3.38721 21348 ft 234 kts 213°
2026-04-17 12:01 56.41502 -3.40415 20961 ft 234 kts 213°
2026-04-17 12:01 56.40174 -3.42121 20576 ft 234 kts 213°
2026-04-17 12:02 56.38854 -3.43837 20203 ft 234 kts 213°
2026-04-17 12:02 56.37534 -3.45551 19826 ft 233 kts 213°
2026-04-17 12:02 56.36218 -3.47255 19458 ft 233 kts 213°